GW5755 Weather Reports


time (UTC)temp
C
wind
direction
speed
KPH
gust
KPH
rain 1hr
cm
rain 24hr
cm
rain mn
cm
humidity
%
barometer
mb
20260906155618 34 331 38.6 46.7 0.00 0.00 0.00 29 1006.4
20260906155114 35 347 33.8 38.6 0.00 0.00 0.00 28 1006.5
20260906154609 35 343 37.0 41.8 0.00 0.00 0.00 27 1006.3
20260906154108 35 342 45.1 49.9 0.00 0.00 0.00 26 1006.4
20260906153608 35 334 40.2 49.9 0.00 0.00 0.00 27 1006.3
20260906153103 35 340 45.1 48.3 0.00 0.00 0.00 26 1006.2
20260906152557 35 336 43.5 49.9 0.00 0.00 0.00 26 1006.3
20260906152057 35 326 40.2 46.7 0.00 0.00 0.00 25 1006.0
20260906151552 35 343 38.6 49.9 0.00 0.00 0.00 25 1006.0
20260906151048 35 338 43.5 49.9 0.00 0.00 0.00 24 1006.1
20260906150543 35 345 38.6 51.5 0.00 0.00 0.00 24 1006.0
20260906150038 36 344 40.2 49.9 0.00 0.00 0.00 24 1006.1
20260906145536 36 346 48.3 51.5 0.00 0.00 0.00 25 1006.2
20260906145032 36 344 41.8 51.5 0.00 0.00 0.00 25 1006.0
20260906144526 36 339 41.8 46.7 0.00 0.00 0.00 25 1006.1
20260906144021 36 343 45.1 53.1 0.00 0.00 0.00 25 1006.0
20260906143516 36 330 46.7 54.7 0.00 0.00 0.00 24 1006.1
20260906143013 37 345 48.3 53.1 0.00 0.00 0.00 24 1006.0
20260906142507 37 334 45.1 51.5 0.00 0.00 0.00 23 1006.0
20260906142002 36 354 37.0 41.8 0.00 0.00 0.00 24 1006.1
20260906141500 37 339 43.5 49.9 0.00 0.00 0.00 24 1006.2
20260906140956 37 21 38.6 51.5 0.00 0.00 0.00 23 1006.1
20260906140450 37 340 46.7 56.3 0.00 0.00 0.00 23 1005.8
20260906135948 37 345 43.5 51.5 0.00 0.00 0.00 23 1005.9
20260906135447 37 348 38.6 43.5 0.00 0.00 0.00 22 1006.0
20260906134943 37 341 38.6 49.9 0.00 0.00 0.00 22 1006.4
20260906134438 37 323 32.2 49.9 0.00 0.00 0.00 24 1006.2
20260906133933 37 345 41.8 46.7 0.00 0.00 0.00 25 1005.9
20260906133429 37 353 41.8 48.3 0.00 0.00 0.00 24 1006.1
20260906132925 37 355 49.9 56.3 0.00 0.00 0.00 22 1006.2
20260906132425 37 5 38.6 41.8 0.00 0.00 0.00 24 1006.1
20260906131920 37 344 49.9 54.7 0.00 0.00 0.00 22 1006.0
20260906131416 37 4 45.1 56.3 0.00 0.00 0.00 22 1006.1
20260906130912 37 349 41.8 53.1 0.00 0.00 0.00 23 1006.0
20260906130411 37 353 49.9 54.7 0.00 0.00 0.00 21 1006.1
20260906125910 37 343 46.7 54.7 0.00 0.00 0.00 23 1006.1
20260906125408 37 349 37.0 48.3 0.00 0.00 0.00 23 1006.4
20260906124902 37 337 45.1 51.5 0.00 0.00 0.00 22 1006.3
20260906124358 37 347 41.8 54.7 0.00 0.00 0.00 21 1006.3
20260906123857 37 346 51.5 61.2 0.00 0.00 0.00 21 1006.3
20260906123352 37 351 48.3 56.3 0.00 0.00 0.00 21 1006.4
20260906122853 37 338 45.1 51.5 0.00 0.00 0.00 21 1006.4
20260906122353 37 326 43.5 56.3 0.00 0.00 0.00 21 1006.4
20260906121850 37 341 45.1 54.7 0.00 0.00 0.00 21 1006.3
20260906121345 37 341 48.3 51.5 0.00 0.00 0.00 21 1006.5
20260906120841 37 357 46.7 56.3 0.00 0.00 0.00 21 1006.5
20260906120337 37 320 49.9 54.7 0.00 0.00 0.00 21 1006.4
20260906115833 37 346 48.3 53.1 0.00 0.00 0.00 22 1006.2
20260906115328 37 340 48.3 56.3 0.00 0.00 0.00 23 1006.5
20260906114827 37 340 48.3 56.3 0.00 0.00 0.00 23 1006.4
20260906114323 37 349 53.1 57.9 0.00 0.00 0.00 22 1006.4
20260906113818 37 338 49.9 57.9 0.00 0.00 0.00 22 1006.6
20260906113317 37 346 43.5 53.1 0.00 0.00 0.00 23 1006.6
20260906112812 37 343 45.1 51.5 0.00 0.00 0.00 21 1007.1
20260906112309 37 338 46.7 53.1 0.00 0.00 0.00 21 1007.0
20260906111808 37 343 37.0 51.5 0.00 0.00 0.00 22 1007.0
20260906111302 37 319 37.0 43.5 0.00 0.00 0.00 22 1007.2
20260906110757 37 348 46.7 53.1 0.00 0.00 0.00 22 1007.2
20260906110253 37 339 40.2 48.3 0.00 0.00 0.00 23 1007.3
20260906105752 37 336 45.1 48.3 0.00 0.00 0.00 23 1007.2
20260906105248 37 5 43.5 54.7 0.00 0.00 0.00 23 1007.2
20260906104743 37 335 43.5 53.1 0.00 0.00 0.00 23 1007.4
20260906104241 36 331 41.8 48.3 0.00 0.00 0.00 23 1007.4
20260906103740 36 358 45.1 51.5 0.00 0.00 0.00 23 1007.5
20260906103234 36 319 48.3 54.7 0.00 0.00 0.00 24 1007.5
20260906102730 36 341 40.2 54.7 0.00 0.00 0.00 23 1007.6
20260906102229 36 338 48.3 57.9 0.00 0.00 0.00 23 1007.6
20260906101724 36 343 49.9 56.3 0.00 0.00 0.00 23 1007.7
20260906101218 36 325 43.5 57.9 0.00 0.00 0.00 23 1007.9
20260906100714 36 337 48.3 56.3 0.00 0.00 0.00 22 1007.9
20260906100214 36 347 45.1 51.5 0.00 0.00 0.00 22 1007.7
20260906095714 36 347 49.9 57.9 0.00 0.00 0.00 22 1007.9
20260906095210 36 352 49.9 54.7 0.00 0.00 0.00 22 1008.1
20260906094708 36 352 49.9 54.7 0.00 0.00 0.00 22 1008.0
20260906094204 36 352 49.9 54.7 0.00 0.00 0.00 22 1007.7
20260906093700 35 340 51.5 57.9 0.00 0.00 0.00 23 1008.1
20260906093156 36 326 49.9 62.8 0.00 0.00 0.00 23 1008.2
20260906092650 35 347 48.3 57.9 0.00 0.00 0.00 24 1008.2
20260906092145 35 338 54.7 56.3 0.00 0.00 0.00 25 1008.3
20260906091641 35 337 51.5 57.9 0.00 0.00 0.00 26 1008.5
20260906091137 35 333 56.3 64.4 0.00 0.00 0.00 25 1008.4
20260906090633 35 350 61.2 67.6 0.00 0.00 0.00 25 1008.4
20260906090132 35 332 56.3 62.8 0.00 0.00 0.00 26 1008.4
20260906085631 35 341 46.7 66.0 0.00 0.00 0.00 26 1008.5
20260906085126 35 340 49.9 61.2 0.00 0.00 0.00 27 1008.3
20260906084620 34 351 53.1 66.0 0.00 0.00 0.00 27 1008.4
20260906084119 34 343 53.1 61.2 0.00 0.00 0.00 27 1008.5
20260906083615 34 350 56.3 61.2 0.00 0.00 0.00 27 1008.7
20260906083114 33 350 51.5 56.3 0.00 0.00 0.00 28 1008.7
20260906082610 33 350 51.5 56.3 0.00 0.00 0.00 28 1008.6
20260906082105 33 332 54.7 57.9 0.00 0.00 0.00 30 1008.6
20260906081601 34 335 56.3 64.4 0.00 0.00 0.00 28 1008.8
20260906081056 34 345 51.5 62.8 0.00 0.00 0.00 28 1008.8
20260906080553 33 17 48.3 66.0 0.00 0.00 0.00 29 1008.5
20260906080043 33 340 53.1 64.4 0.00 0.00 0.00 28 1008.7
20260906075537 33 343 48.3 53.1 0.00 0.00 0.00 30 1008.8
20260906075032 33 334 57.9 64.4 0.00 0.00 0.00 28 1008.8
20260906074526 33 343 46.7 54.7 0.00 0.00 0.00 30 1008.8
20260906074020 33 343 54.7 57.9 0.00 0.00 0.00 30 1008.7
20260906073515 33 337 48.3 54.7 0.00 0.00 0.00 30 1008.9
20260906073011 33 334 43.5 49.9 0.00 0.00 0.00 32 1008.9
20260906072506 33 348 49.9 56.3 0.00 0.00 0.00 30 1008.6
20260906072002 33 338 53.1 61.2 0.00 0.00 0.00 32 1008.9
20260906071458 33 332 48.3 57.9 0.00 0.00 0.00 29 1008.9
20260906070953 33 325 45.1 49.9 0.00 0.00 0.00 29 1008.9
20260906070448 33 347 43.5 49.9 0.00 0.00 0.00 28 1008.7
20260906065944 33 354 54.7 56.3 0.00 0.00 0.00 27 1009.0
20260906065438 33 326 53.1 61.2 0.00 0.00 0.00 29 1008.7
20260906064934 32 338 46.7 54.7 0.00 0.00 0.00 35 1008.9
20260906064429 32 338 46.7 54.7 0.00 0.00 0.00 35 1008.9
20260906063924 32 338 46.7 54.7 0.00 0.00 0.00 35 1009.0
20260906063419 32 338 46.7 54.7 0.00 0.00 0.00 35 1008.8
20260906062915 32 338 46.7 54.7 0.00 0.00 0.00 35 1008.8
20260906062414 32 331 48.3 51.5 0.00 0.00 0.00 35 1008.9
20260906061909 32 331 48.3 51.5 0.00 0.00 0.00 35 1008.9
20260906061406 32 337 38.6 48.3 0.00 0.00 0.00 35 1008.8
20260906060859 32 334 40.2 51.5 0.00 0.00 0.00 32 1009.0
20260906060357 31 334 43.5 49.9 0.00 0.00 0.00 37 1008.8
20260906055853 31 334 43.5 49.9 0.00 0.00 0.00 37 1009.0
20260906055348 31 334 43.5 49.9 0.00 0.00 0.00 37 1009.0
20260906054843 31 332 41.8 43.5 0.00 0.00 0.00 39 1008.9
20260906054338 31 332 41.8 43.5 0.00 0.00 0.00 39 1008.7
20260906053835 31 332 41.8 43.5 0.00 0.00 0.00 39 1008.8
20260906053330 31 335 45.1 49.9 0.00 0.00 0.00 39 1008.7
20260906052826 31 345 33.8 40.2 0.00 0.00 0.00 41 1008.6
20260906052322 30 351 35.4 46.7 0.00 0.00 0.00 41 1008.6
20260906051819 30 344 40.2 46.7 0.00 0.00 0.00 43 1008.7
20260906051318 30 351 46.7 53.1 0.00 0.00 0.00 43 1008.4
20260906050814 30 340 38.6 48.3 0.00 0.00 0.00 43 1008.6
20260906050309 30 336 37.0 40.2 0.00 0.00 0.00 44 1008.6
20260906045808 30 341 37.0 49.9 0.00 0.00 0.00 44 1008.4
20260906045305 30 338 35.4 41.8 0.00 0.00 0.00 44 1008.5
20260906044759 30 351 41.8 51.5 0.00 0.00 0.00 46 1008.5
20260906044253 30 340 35.4 41.8 0.00 0.00 0.00 47 1008.5
20260906043749 30 340 38.6 41.8 0.00 0.00 0.00 47 1008.5
20260906043245 30 337 38.6 46.7 0.00 0.00 0.00 47 1008.3
20260906042744 30 326 38.6 41.8 0.00 0.00 0.00 46 1008.4
20260906042243 30 345 33.8 40.2 0.00 0.00 0.00 46 1008.3
20260906041739 29 357 38.6 41.8 0.00 0.00 0.00 46 1008.1
20260906041234 29 338 35.4 40.2 0.00 0.00 0.00 47 1008.2
20260906040730 29 10 29.0 35.4 0.00 0.00 0.00 48 1007.9
20260906040225 29 333 30.6 40.2 0.00 0.00 0.00 48 1008.1
20260906035720 29 346 30.6 35.4 0.00 0.00 0.00 47 1008.2
20260906035216 29 343 38.6 41.8 0.00 0.00 0.00 48 1008.0
20260906034716 29 328 33.8 40.2 0.00 0.00 0.00 48 1008.1
20260906034211 29 2 37.0 40.2 0.00 0.00 0.00 47 1008.0
20260906033707 29 9 33.8 41.8 0.00 0.00 0.00 47 1008.1
20260906033206 29 335 32.2 40.2 0.00 0.00 0.00 46 1007.8
20260906032703 29 345 40.2 46.7 0.00 0.00 0.00 45 1007.9
20260906032158 29 346 33.8 40.2 0.00 0.00 0.00 45 1007.9
20260906031653 29 333 37.0 46.7 0.00 0.00 0.00 46 1007.7
20260906031148 29 346 37.0 41.8 0.00 0.00 0.00 46 1007.6
20260906030647 29 356 35.4 49.9 0.00 0.00 0.00 46 1007.7
20260906030143 29 346 40.2 43.5 0.00 0.00 0.00 47 1007.7
20260906025642 29 331 37.0 41.8 0.00 0.00 0.00 46 1007.6
20260906025142 29 335 37.0 41.8 0.00 0.00 0.00 46 1007.5
20260906024636 30 333 33.8 49.9 0.00 0.00 0.00 45 1007.7
20260906024130 30 330 37.0 46.7 0.00 0.00 0.00 44 1007.7
20260906023627 30 345 32.2 49.9 0.00 0.00 0.00 43 1007.6
20260906023126 30 348 38.6 41.8 0.00 0.00 0.00 42 1007.8
20260906022622 30 346 35.4 40.2 0.00 0.00 0.00 42 1007.3
20260906022117 30 322 33.8 38.6 0.00 0.00 0.00 42 1007.4
20260906021613 30 344 37.0 41.8 0.00 0.00 0.00 42 1007.5
20260906021111 30 339 33.8 37.0 0.00 0.00 0.00 42 1007.5
20260906020611 30 336 33.8 48.3 0.00 0.00 0.00 42 1007.6
20260906020106 30 350 37.0 40.2 0.00 0.00 0.00 44 1007.5
20260906015606 30 342 41.8 48.3 0.00 0.00 0.00 45 1007.6
20260906015104 30 332 41.8 49.9 0.00 0.00 0.00 45 1007.4
20260906014559 30 341 40.2 43.5 0.00 0.00 0.00 45 1007.4
20260906014056 30 341 33.8 46.7 0.00 0.00 0.00 45 1007.5
20260906013551 30 343 38.6 41.8 0.00 0.00 0.00 43 1007.4
20260906013046 30 312 38.6 41.8 0.00 0.00 0.00 44 1007.4
20260906012541 30 334 40.2 48.3 0.00 0.00 0.00 44 1007.2
20260906012040 30 346 37.0 43.5 0.00 0.00 0.00 45 1007.2
20260906011537 30 347 40.2 46.7 0.00 0.00 0.00 44 1007.0
20260906011036 30 343 37.0 40.2 0.00 0.00 0.00 45 1007.2
20260906010532 30 321 33.8 41.8 0.00 0.00 0.00 44 1007.3
20260906010028 30 348 38.6 48.3 0.00 0.00 0.00 43 1007.3
20260906005527 30 333 37.0 41.8 0.00 0.00 0.00 43 1007.2
20260906005026 30 348 41.8 46.7 0.00 0.00 0.00 42 1007.2
20260906004520 30 345 43.5 53.1 0.00 0.00 0.00 41 1007.1
20260906004016 30 339 41.8 46.7 0.00 0.00 0.00 41 1007.1
20260906003511 30 340 46.7 49.9 0.00 0.00 0.00 42 1007.3
20260906003007 30 338 45.1 49.9 0.00 0.00 0.00 43 1007.2
20260906002507 30 345 40.2 43.5 0.00 0.00 0.00 42 1007.1
20260906002001 30 320 45.1 54.7 0.00 0.00 0.00 42 1007.2
20260906001458 30 334 46.7 51.5 0.00 0.00 0.00 42 1007.0
20260906000952 30 321 43.5 49.9 0.00 0.00 0.00 42 1006.9
20260906000448 30 335 43.5 49.9 0.00 0.00 0.00 42 1007.2
20260905235947 30 352 38.6 43.5 0.00 0.00 0.00 42 1007.2
20260905235441 30 352 38.6 43.5 0.00 0.00 0.00 42 1007.1
20260905234937 30 326 37.0 41.8 0.00 0.00 0.00 43 1007.1
20260905234432 30 353 38.6 41.8 0.00 0.00 0.00 44 1007.0
20260905233926 30 345 38.6 49.9 0.00 0.00 0.00 44 1007.0
20260905233422 30 332 41.8 43.5 0.00 0.00 0.00 43 1007.0
20260905232920 30 332 41.8 43.5 0.00 0.00 0.00 43 1007.2
20260905232417 30 332 35.4 38.6 0.00 0.00 0.00 44 1007.2
20260905231912 30 332 35.4 38.6 0.00 0.00 0.00 44 1007.4
20260905231408 30 11 46.7 51.5 0.00 0.00 0.00 44 1007.1
20260905230904 30 343 35.4 38.6 0.00 0.00 0.00 45 1007.1
20260905230402 30 333 43.5 48.3 0.00 0.00 0.00 45 1007.2
20260905225901 31 344 40.2 43.5 0.00 0.00 0.00 45 1007.3
20260905225356 31 344 40.2 43.5 0.00 0.00 0.00 45 1007.2
20260905224851 31 331 37.0 41.8 0.00 0.00 0.00 45 1007.2
20260905224348 31 331 37.0 41.8 0.00 0.00 0.00 45 1007.4
20260905223842 31 331 37.0 43.5 0.00 0.00 0.00 45 1007.3
20260905223339 31 337 37.0 40.2 0.00 0.00 0.00 46 1007.3
20260905222839 31 338 29.0 35.4 0.00 0.00 0.00 45 1007.1
20260905222338 31 335 41.8 48.3 0.00 0.00 0.00 46 1007.3
20260905221834 31 335 41.8 48.3 0.00 0.00 0.00 46 1007.2
20260905221331 31 338 41.8 48.3 0.00 0.00 0.00 46 1007.2
20260905220827 31 358 30.6 33.8 0.00 0.00 0.00 47 1007.4
20260905220323 31 347 48.3 53.1 0.00 0.00 0.00 46 1007.3
20260905215822 31 346 35.4 40.2 0.00 0.00 0.00 47 1007.4
20260905215318 31 346 35.4 40.2 0.00 0.00 0.00 47 1007.4
20260905214814 31 339 30.6 43.5 0.00 0.00 0.00 47 1007.7
20260905214309 31 336 29.0 30.6 0.00 0.00 0.00 47 1007.4
20260905213805 31 336 49.9 54.7 0.00 0.00 0.00 47 1007.8
20260905213301 31 340 45.1 51.5 0.00 0.00 0.00 48 1007.4
20260905212801 31 340 45.1 51.5 0.00 0.00 0.00 48 1007.5
20260905212301 31 343 33.8 40.2 0.00 0.00 0.00 48 1008.1
20260905211801 31 350 38.6 41.8 0.00 0.00 0.00 48 1007.8
20260905211255 31 336 38.6 46.7 0.00 0.00 0.00 46 1007.5
20260905210753 31 325 32.2 37.0 0.00 0.00 0.00 46 1007.7
20260905210252 31 325 32.2 37.0 0.00 0.00 0.00 46 1007.7
20260905205751 31 347 40.2 43.5 0.00 0.00 0.00 45 1007.8
20260905205246 31 347 40.2 43.5 0.00 0.00 0.00 45 1007.7
20260905204745 31 344 37.0 40.2 0.00 0.00 0.00 45 1007.7
20260905204241 31 339 35.4 40.2 0.00 0.00 0.00 44 1007.7
20260905203740 32 338 30.6 35.4 0.00 0.00 0.00 44 1007.7
20260905203236 32 350 30.6 33.8 0.00 0.00 0.00 42 1007.8
20260905202732 32 350 30.6 33.8 0.00 0.00 0.00 42 1007.7
20260905202227 32 325 33.8 37.0 0.00 0.00 0.00 42 1007.8
20260905201722 32 328 29.0 33.8 0.00 0.00 0.00 42 1007.9
20260905201223 32 351 37.0 40.2 0.00 0.00 0.00 40 1008.0
20260905200718 32 351 37.0 40.2 0.00 0.00 0.00 40 1008.0
20260905200214 32 351 37.0 40.2 0.00 0.00 0.00 40 1007.8
20260905195712 32 351 37.0 40.2 0.00 0.00 0.00 40 1007.9
20260905195212 32 351 37.0 40.2 0.00 0.00 0.00 40 1007.9
20260905194708 32 351 37.0 40.2 0.00 0.00 0.00 40 1007.8
20260905194207 32 349 30.6 35.4 0.00 0.00 0.00 40 1007.7
20260905193701 32 340 37.0 41.8 0.00 0.00 0.00 40 1007.7
20260905193156 32 348 33.8 41.8 0.00 0.00 0.00 40 1007.6
20260905192652 33 346 37.0 40.2 0.00 0.00 0.00 37 1007.9
20260905192149 33 346 37.0 40.2 0.00 0.00 0.00 37 1007.7
20260905191648 33 346 37.0 40.2 0.00 0.00 0.00 37 1007.8
20260905191146 33 346 37.0 40.2 0.00 0.00 0.00 37 1007.7
20260905190645 33 346 37.0 40.2 0.00 0.00 0.00 37 1007.7
20260905190144 33 346 37.0 40.2 0.00 0.00 0.00 37 1007.6
20260905185643 33 346 37.0 40.2 0.00 0.00 0.00 37 1007.6
20260905185138 33 346 37.0 40.2 0.00 0.00 0.00 37 1007.6
20260905184637 33 330 38.6 43.5 0.00 0.00 0.00 38 1007.5
20260905184136 33 332 35.4 38.6 0.00 0.00 0.00 38 1007.4
20260905183636 33 332 35.4 38.6 0.00 0.00 0.00 38 1007.4
20260905183131 33 332 35.4 38.6 0.00 0.00 0.00 38 1007.4
20260905182630 33 347 33.8 38.6 0.00 0.00 0.00 38 1007.4
20260905182130 33 344 35.4 38.6 0.00 0.00 0.00 38 1007.3
20260905181625 32 345 24.1 27.4 0.00 0.00 0.00 37 1007.5
20260905181124 32 345 24.1 27.4 0.00 0.00 0.00 37 1007.5
20260905180619 32 345 24.1 27.4 0.00 0.00 0.00 37 1007.7
20260905180115 32 275 3.2 6.4 0.00 0.00 0.00 42 1007.5
20260905175614 32 275 3.2 6.4 0.00 0.00 0.00 42 1007.6
20260905175109 32 275 3.2 6.4 0.00 0.00 0.00 42 1007.6
20260905174605 32 275 3.2 6.4 0.00 0.00 0.00 42 1007.5
20260905174100 32 275 3.2 6.4 0.00 0.00 0.00 42 1007.6
20260905173557 32 275 3.2 6.4 0.00 0.00 0.00 42 1007.7
20260905173052 32 275 3.2 6.4 0.00 0.00 0.00 42 1007.5
20260905172550 31 216 6.4 6.4 0.00 0.00 0.00 50 1007.6
20260905172046 31 216 6.4 6.4 0.00 0.00 0.00 50 1007.5
20260905171542 31 201 9.7 11.3 0.00 0.00 0.00 58 1007.7
20260905171038 31 201 9.7 11.3 0.00 0.00 0.00 58 1007.5
20260905170534 31 206 4.8 4.8 0.00 0.00 0.00 58 1007.3
20260905170029 31 210 4.8 4.8 0.00 0.00 0.00 56 1007.3
20260905165525 31 250 6.4 9.7 0.00 0.00 0.00 59 1007.1
20260905165020 31 251 6.4 6.4 0.00 0.00 0.00 57 1007.3
20260905164520 31 251 6.4 6.4 0.00 0.00 0.00 57 1007.2
20260905164014 31 251 6.4 9.7 0.00 0.00 0.00 57 1006.9
20260905163511 31 257 6.4 6.4 0.00 0.00 0.00 54 1007.2
20260905163006 31 259 6.4 9.7 0.00 0.00 0.00 54 1007.1
20260905162502 31 263 6.4 6.4 0.00 0.00 0.00 55 1007.0
20260905161957 31 260 6.4 6.4 0.00 0.00 0.00 57 1006.7
20260905161456 31 260 8.0 9.7 0.00 0.00 0.00 56 1006.9
20260905160954 31 276 9.7 9.7 0.00 0.00 0.00 56 1006.7
20260905160448 31 276 9.7 11.3 0.00 0.00 0.00 56 1006.8
20260905155947 31 269 9.7 11.3 0.00 0.00 0.00 55 1006.8